Regional Weather Roundup
Issued by NWS Charleston, SC

Current Version | Previous Version | Text Only | Print | Product List | Glossary Off
Versions: 1 2 3 4 5 6 7 8 9 10 11 12 13 14 15 16 17 18 19 20 21 22 23 24 25 26 27 28 29 30 31 32 33 34 35 36 37 38 39 40 41 42 43 44 45 46 47 48 49 50

000
ASUS42 KCHS 240128
RWRCHS

REGIONAL WEATHER ROUNDUP
NATIONAL WEATHER SERVICE CHARLESTON SC
900 PM EDT SAT JUL 23 2016

NOTE: "FAIR" INDICATES FEW OR NO CLOUDS BELOW 12,000 FEET WITH NO
SIGNIFICANT WEATHER AND/OR OBSTRUCTIONS TO VISIBILITY.

NOT ALL STATIONS ARE QUALITY CONTROLLED. USE DATA WITH CAUTION...
ESPECIALLY DEWPOINT OBSERVATIONS.

SCZ027-030-031-034>040-042>050-240200-
...SOUTHEAST SOUTH CAROLINA...

CITY           SKY/WX    TMP DP  RH WIND       PRES   REMARKS
N CHARLESTON   PTCLDY    83  75  77 S7        29.98R HX  90
WATERFRONT PRK   N/A     85  78  79 S7        29.96R HX  97
MOUNT PLEASANT FAIR      84  77  79 CALM      29.99R HX  94
JOHNS ISLAND   FAIR      84  77  79 CALM      29.99R HX  94
PINOPOLIS        N/A     86  73  66 CALM      29.90R HX  93
MONCKS CORNER  FAIR      81  70  69 S3        29.99R
SUMMERVILLE    FAIR      84  77  79 CALM      29.99R HX  94
BEAUFORT MCAS  PTCLDY    86  74  67 S3        29.98R HX  94
BEAUFORT ARPT  FAIR      84  75  74 S7        29.98R HX  92
HILTON HEAD IS CLEAR     84  75  74 S8        30.00R HX  92
WALTERBORO     CLEAR     84  73  70 SE3       30.00R HX  91
ALLENDALE      FAIR      86  73  66 CALM      29.98R HX  93

...SOUTHERN MIDLANDS AND PEE DEE...

CITY           SKY/WX    TMP DP  RH WIND       PRES   REMARKS
GEORGETOWN     FAIR      79  75  89 CALM      30.00R
KINGSTREE      FAIR      81  73  78 SE5       29.98R
ORANGEBURG     CLEAR     83  73  72 CALM      29.98R
BARNWELL       NOT AVBL
AIKEN          FAIR      81  73  78 CALM      30.03R
MANNING        FAIR      82  75  78 SW3       29.99R
COLUMBIA       PTCLDY    85  71  63 CALM      29.97R HX  90
SUMTER         PTCLDY    82  72  69 E1        29.97R
FLORENCE       MOCLDY    84  74  71 S6        29.99R HX  91
MYRTLE BEACH   PTCLDY    84  72  65 S9        30.00R
N MYRTLE BEACH CLOUDY    81  75  82 N7        30.00R

$$

GAZ063-065-086>088-099>101-113>116-118-119-134>141-150-240200-
...SOUTHEAST GEORGIA...

CITY           SKY/WX    TMP DP  RH WIND       PRES   REMARKS
SAVANNAH ARPT  MOCLDY    83  73  72 W5        29.99R
HUNTER AAF     PTCLDY    84  77  80 S6        29.96R HX  93
FORT STEWART   PTCLDY    85  71  62 CALM      29.96R
STATESBORO     PTCLDY    81  73  78 CALM      29.99R
SYLVANIA       NOT AVBL
CLAXTON        FAIR      80  75  86 CALM      29.99S

...CSRA...CENTRAL AND FAR SOUTHEAST GEORGIA...

CITY           SKY/WX    TMP DP  RH WIND       PRES   REMARKS
THOMSON        CLOUDY    84  76  76 CALM      30.04R HX  93
AUGUSTA-BUSH   CLOUDY    79  69  71 SE7       29.97R
AUGUSTA-DANIEL PTCLDY    87  71  58 S6        29.99R HX  93
SWAINSBORO     FAIR      79  73  83 CALM      30.01R
VIDALIA        PTCLDY    81  70  69 CALM      30.01R
EASTMAN        FAIR      78  65  63 CALM      30.02R
HAZLEHURST     FAIR      79  76  90 CALM      30.00R
ALMA           PTCLDY    80  71  74 CALM      29.99R
WAYCROSS       PTCLDY    86  74  67 NE5       30.00R HX  93
JESUP          FAIR      86  75  70 CALM      30.00R HX  95
BAXLEY         FAIR      79  77  94 CALM      29.99R
BRUNSWICK      CLEAR     86  77  74 S5        30.00R HX  97
SAINT SIMONS   CLEAR     85  75  72 S6        29.99R HX  93

$$

SCZ027-028-034-036>038-045-046-048>050-GAZ119-141-240200-
...LAKE AND SUPPLEMENTAL COASTAL OBSERVATIONS...

STATION/POSITION TIME  TEMP    WIND        PRES    WAVE   SWELL
                       AIR SEA DIR/SP/G            HT/PER HT/PER/DIR
                 (UTC) (F)     (DEG/KT/KT) (MB)    (FT/S) (FT/S/D)
WINYAH BAY       0000   85     210/  9     1014.0S
LAKE MURRAY      0000   84      CALM  /  3 1014.2S
ACE BASIN NERRS  0000   85        CALM     1015.0S
FORT PULASKI     0000      88                N/A
SAPELO ISLAND    0100   85     180/  9     1015.0S

$$

ANZ835-935-AMZ111-154-330-350-352-354-370-450-454-472-240200-
...C-MAN AND BUOY OBSERVATIONS...

STATION/POSITION TIME  TEMP    WIND        PRES    WAVE   SWELL
                       AIR SEA DIR/SP/G            HT/PER HT/PER/DIR
                 (UTC) (F)     (DEG/KT/KT) (MB)    (FT/S) (FT/S/D)
BUOY 41004       0050   85 86  180/ 10/ 12 1014.9R   2/ 9   2/120/ 9
BUOY 41008       0050   85 87  160/ 12/ 14 1015.2R   2/ 8   2/100/ 8
FOLLY BEACH CMAN 0100   85     200/ 11/ 13 1015.6R
CAPERS NEARSHORE 0008   85 85  210/ 12/ 16 1014.9R
FRIPP NEARSHORE  0008   85 87  190/ 14/ 17 1014.3F


STATION/POSITION TIME  TEMP    WIND        PRES    WAVE   SWELL
                       AIR SEA DIR/SP/G            HT/PER HT/PER/DIR
                 (UTC) (F)     (DEG/KT/KT) (MB)    (FT/S) (FT/S/D)
5E ST. MARYS GA  0101      87                N/A     3/ 8
FRYING PAN BUOY  0100   84 86  190/  8/ 10 1015.5R
BUOY 41025       0050   84 86  220/ 14/ 16 1015.3R   3/ 8   2/130/ 8
CAPE LOOKOUT NC  0100   83     210/  8/ 11 1015.4R
BUOY 41002       0050   83 85  130/  6/  8 1016.4S   3/ 9   3/100/ 9
BUOY 41010       0020   85 87   70/  4/  4 1016.5R
ST AUGUSTINE FL  0100   85 88  150/ 14/ 15 1016.7R


$$




USA.gov is the U.S. government's official web portal to all federal, state and local government web resources and services.